Location: Days
(41.3591°N, 106.7339°W)
Time: 12:50:23
(UTC+00:00)

RS-15 - Pass Details

Date: 03 July 2022
Orbit: 1881 x 2163 km, 64.8° (Epoch: 13 August)

Event Time Altitude Azimuth Distance (km) Brightness Sun altitude
Rises 07:06:13 0° 325° (NW) 5,698 11.3 -25.7°
Reaches altitude 10° 07:09:44 10° 323° (NW) 4,685 10.7 -25.7°
Maximum altitude 07:21:50 67° 245° (WSW) 2,260 8.1 -25.6°
Enters shadow 07:27:10 38° 178° (S) 2,877 8.3 -25.6°
